Back to catalog

COSMOS 2336

AliveMilitaryPO
NORAD 24677·PAYLOAD·🇷🇺 Russia

Launched Dec 20, 1996 from Plesetsk Cosmodrome

Loading…

Next Passes (next 24 hours)

TLE

FreshSource: Space-Track

Epoch: Sep 14, 2026, 02:36 UTC

1 24677U 96071A   26257.10899395  .00000056  00000-0  44856-4 0  9997
2 24677  82.9427 141.2208 0024646  35.1371 134.4279 13.71688166488210

Track COSMOS 2336 in real time with AllMySat

Download on the App Store